Andrews, NC

10:01 PM EDT on May 27, 2017 (GMT -0400)
Andrews

Weather History for KRHP - November, 2013

Change the Weather History Date:

Saturday, November 2, 2013

  Actual Average (KMMI) Record (KMMI)
Temperature  
Mean Temperature 49 °F -  
Max Temperature 62 °F 69 °F 80 °F (2016)
Min Temperature 36 °F 43 °F 26 °F (2014)
Degree Days  
Heating Degree Days 16    
Moisture  
Dew Point 39 °F    
Average Humidity 79    
Maximum Humidity 100    
Minimum Humidity 41    
Precipitation  
Precipitation 0.00 in - - ()
Sea Level Pressure  
Sea Level Pressure 29.92 in    
Wind  
Wind Speed 1 mph (West)    
Max Wind Speed 14 mph    
Max Gust Speed 24 mph    
Visibility 8 miles    
Events Fog , Rain    
Averages and records for this station are not official NWS values.
T = Trace of Precipitation, MM = Missing Value Source: NWS Daily Summary

Daily Weather History Graph

Daily Weather History Graph

Search for Another Location

Airport or City:

Trip Planner

Search our weather history database for the weather conditions in past years. The results will help you decide how hot, cold, wet, or windy it might be!

Date:

Astronomy

Nov. 02, 2013 Rise Set
Actual Time 7:57 AM EDT 6:39 PM EDT
Civil Twilight 7:31 AM EDT 7:05 PM EDT
Nautical Twilight 7:01 AM EDT 7:35 PM EDT
Astronomical Twilight 6:31 AM EDT 8:05 PM EDT
Moon 6:55 AM EDT (11/2) 6:09 PM EDT (11/2)
Length of Visible Light 11h 34m
Length of Day
10h 41m
Waning Crescent, 1% of the Moon is Illuminated
Nov 2
Waning Crescent
Nov 3
New
Nov 10
First Quarter
Nov 17
Full
Nov 25
Last Quarter

Hourly Weather History & Observations

Time (EDT) Temp. Windchill Dew Point Humidity Pressure Visibility Wind Dir Wind Speed Gust Speed Precip Events Conditions
12:15 AM 44.1 °F - 43.3 °F 97% 29.85 in 10.0 mi Calm Calm - N/A   Clear
12:35 AM 43.7 °F - 43.2 °F 98% 29.85 in 10.0 mi Calm Calm - N/A   Clear
12:55 AM 42.6 °F - 41.5 °F 96% 29.85 in 10.0 mi Calm Calm - N/A   Clear
1:15 AM 42.8 °F - 42.4 °F 99% 29.85 in 10.0 mi Calm Calm - N/A   Clear
1:35 AM 41.7 °F - 41.0 °F 97% 29.84 in 7.0 mi Calm Calm - N/A   Clear
1:55 AM 41.5 °F - 41.4 °F 99% 29.84 in 2.5 mi Calm Calm - N/A   Clear
2:15 AM 41.4 °F - 41.0 °F 99% 29.85 in 10.0 mi Calm Calm - N/A   Clear
2:35 AM 41.5 °F - 41.4 °F 99% 29.85 in 7.0 mi Calm Calm - N/A   Clear
2:55 AM 40.8 °F - 40.1 °F 97% 29.86 in 10.0 mi Calm Calm - N/A   Clear
3:15 AM 40.1 °F - 39.6 °F 98% 29.85 in 10.0 mi Calm Calm - N/A   Clear
3:35 AM 40.5 °F - 40.3 °F 99% 29.86 in 10.0 mi Calm Calm - N/A   Clear
3:55 AM 39.7 °F - 39.4 °F 99% 29.85 in 4.0 mi Calm Calm - N/A   Clear
4:15 AM 38.8 °F - 38.5 °F 99% 29.86 in 10.0 mi Calm Calm - N/A   Scattered Clouds
4:35 AM 39.2 °F - 38.8 °F 99% 29.85 in 10.0 mi Calm Calm - N/A   Clear
4:55 AM 39.7 °F - 39.7 °F 100% 29.86 in 2.5 mi Calm Calm - N/A   Clear
5:15 AM 38.1 °F - 37.9 °F 99% 29.86 in 10.0 mi Calm Calm - N/A   Clear
5:35 AM 37.6 °F - 37.4 °F 99% 29.86 in 0.5 mi Calm Calm - N/A Fog Fog
5:55 AM 37.2 °F - 37.0 °F 99% 29.87 in 0.5 mi Calm Calm - N/A Fog Fog
6:15 AM 36.9 °F 34.3 °F 36.9 °F 100% 29.86 in 1.5 mi NE 3.5 mph - N/A   Overcast
6:35 AM 37.0 °F - 37.0 °F 100% 29.87 in 0.2 mi Calm Calm - N/A Fog Fog
6:55 AM 36.7 °F - 36.5 °F 99% 29.87 in 1.8 mi Calm Calm - N/A   Overcast
7:15 AM 36.5 °F - 36.5 °F 100% 29.88 in 2.5 mi Calm Calm - N/A   Scattered Clouds
7:35 AM 36.5 °F - 36.5 °F 100% 29.88 in 5.0 mi Calm Calm - N/A   Clear
7:55 AM 36.0 °F - 36.0 °F 100% 29.88 in 0.5 mi Calm Calm - N/A Fog Fog
8:15 AM 36.5 °F - 36.5 °F 100% 29.88 in 0.5 mi Calm Calm - N/A Fog Fog
8:35 AM 36.7 °F - 36.7 °F 100% 29.88 in 7.0 mi Calm Calm - N/A   Clear
8:55 AM 38.5 °F - 38.5 °F 100% 29.89 in 7.0 mi Calm Calm - N/A   Scattered Clouds
9:15 AM 40.3 °F - 40.3 °F 100% 29.90 in 10.0 mi Calm Calm - N/A   Clear
9:35 AM 41.2 °F - 41.0 °F 99% 29.91 in 10.0 mi Calm Calm - N/A   Clear
9:55 AM 44.2 °F - 43.3 °F 97% 29.92 in 10.0 mi Calm Calm - N/A   Clear
10:15 AM 45.0 °F 43.5 °F 43.3 °F 94% 29.92 in 10.0 mi WSW 3.5 mph - N/A   Clear
10:35 AM 47.5 °F - 44.8 °F 90% 29.92 in 10.0 mi Calm Calm - N/A   Clear
10:55 AM 50.9 °F - 45.9 °F 83% 29.92 in 10.0 mi Calm Calm - N/A   Scattered Clouds
11:15 AM 52.2 °F - 45.5 °F 78% 29.92 in 10.0 mi Calm Calm - N/A   Mostly Cloudy
11:35 AM 53.8 °F - 45.9 °F 75% 29.91 in 10.0 mi Calm Calm - N/A   Scattered Clouds
11:55 AM 58.1 °F - 45.1 °F 62% 29.91 in 10.0 mi WSW 5.8 mph - N/A   Scattered Clouds
1:15 PM 62.1 °F - 41.7 °F 47% 29.89 in 10.0 mi West 11.5 mph 24.2 mph N/A   Overcast
1:35 PM 59.2 °F - 40.6 °F 50% 29.89 in 10.0 mi WSW 10.4 mph 19.6 mph N/A Rain Light Rain
1:55 PM 54.5 °F - 44.8 °F 70% 29.90 in 10.0 mi West 8.1 mph - N/A Rain Light Rain
2:15 PM 59.2 °F - 43.7 °F 57% 29.89 in 10.0 mi SSW 6.9 mph - N/A   Scattered Clouds
2:35 PM 61.0 °F - 41.9 °F 49% 29.89 in 10.0 mi SW 9.2 mph - N/A   Scattered Clouds
2:55 PM 58.3 °F - 37.4 °F 46% 29.89 in 10.0 mi WNW 13.8 mph 18.4 mph N/A Rain Light Rain
3:15 PM 57.4 °F - 38.3 °F 49% 29.89 in 10.0 mi West 6.9 mph - N/A   Scattered Clouds
3:35 PM 59.0 °F - 38.1 °F 46% 29.89 in 10.0 mi NNW 8.1 mph - N/A   Mostly Cloudy
3:55 PM 58.3 °F - 37.4 °F 46% 29.89 in 10.0 mi WNW 4.6 mph - N/A   Overcast
4:15 PM 56.5 °F - 33.3 °F 42% 29.89 in 10.0 mi WSW 8.1 mph - N/A   Overcast
4:35 PM 59.0 °F - 35.4 °F 41% 29.91 in 10.0 mi WNW 13.8 mph 23.0 mph N/A   Mostly Cloudy
4:55 PM 57.0 °F - 37.8 °F 49% 29.90 in 10.0 mi NNW 5.8 mph - N/A   Mostly Cloudy
5:15 PM 56.1 °F - 37.0 °F 49% 29.91 in 10.0 mi Calm Calm - N/A   Overcast
5:35 PM 54.3 °F - 40.8 °F 60% 29.92 in 10.0 mi Calm Calm - N/A   Mostly Cloudy
5:55 PM 54.3 °F - 40.8 °F 60% 29.92 in 10.0 mi ESE 4.6 mph - N/A   Mostly Cloudy
6:15 PM 53.1 °F - 40.1 °F 61% 29.93 in 10.0 mi Calm Calm - N/A   Overcast
6:35 PM 50.2 °F - 41.5 °F 72% 29.94 in 10.0 mi Calm Calm - N/A   Scattered Clouds
6:55 PM 50.5 °F - 41.5 °F 71% 29.96 in 10.0 mi NE 3.5 mph - N/A   Overcast
7:15 PM 51.6 °F - 37.6 °F 59% 29.97 in 10.0 mi Calm Calm - N/A   Overcast
7:35 PM 51.3 °F - 37.2 °F 59% 29.99 in 10.0 mi Calm Calm - N/A   Overcast
7:55 PM 51.1 °F - 36.7 °F 58% 30.00 in 10.0 mi Calm Calm - N/A   Overcast
8:15 PM 51.3 °F - 36.3 °F 57% 30.01 in 10.0 mi Calm Calm - N/A   Overcast
8:35 PM 49.8 °F - 37.0 °F 61% 30.01 in 10.0 mi Calm Calm - N/A   Overcast
8:55 PM 49.8 °F - 36.1 °F 59% 30.03 in 10.0 mi East 6.9 mph - N/A   Mostly Cloudy
9:15 PM 49.1 °F - 35.6 °F 60% 30.03 in 10.0 mi Calm Calm - N/A   Scattered Clouds
9:35 PM 46.6 °F - 36.0 °F 67% 30.04 in 10.0 mi Calm Calm - N/A   Clear
9:55 PM 45.1 °F - 35.8 °F 70% 30.05 in 10.0 mi Calm Calm - N/A   Clear
10:15 PM 41.5 °F - 36.5 °F 82% 30.06 in 10.0 mi Calm Calm - N/A   Clear
10:35 PM 40.6 °F - 36.3 °F 85% 30.07 in 10.0 mi Calm Calm - N/A   Clear
10:55 PM 40.5 °F - 36.1 °F 85% 30.08 in 10.0 mi Calm Calm - N/A   Clear
11:15 PM 38.5 °F - 35.2 °F 88% 30.08 in 10.0 mi Calm Calm - N/A   Clear
11:35 PM 38.7 °F - 35.8 °F 89% 30.08 in 10.0 mi Calm Calm - N/A   Clear
11:55 PM 38.7 °F - 35.8 °F 89% 30.08 in 10.0 mi Calm Calm - N/A   Clear